Location: Dominguez Junction
(33.8634°N, 118.2179°W)
Time: 02:24:27
(UTC+00:00)

Daily predictions for brighter satellites

Satellite Brightness Start Highest point End
(mag) Time Altitude Azimuth Time Altitude Azimuth Time Altitude Azimuth
Cosmos 2195 Rocket 4.5 03:21:57 10° S 03:28:00 70° E 03:34:07 10° N
Sich 1 4.4 03:28:17 10° NNW 03:32:22 42° W 03:36:24 10° SSW
Cosmos 1666 Rocket 3.8 03:28:25 10° N 03:32:39 51° E 03:36:53 10° SSE
COSMOS 2406 3.2 03:29:59 10° SSW 03:35:42 73° ESE 03:41:26 10° NNE
NOSS 3-4 (A) 4.1 03:29:59 10° NNW 03:37:19 88° ENE 03:45:41 10° SSE
NOSS 3-4 (C) 4.1 03:30:01 10° NNW 03:37:21 87° ENE 03:45:39 10° SSE
CSL-04 Debris 4.4 03:33:35 10° SSE 03:38:53 58° ENE 03:44:11 10° N
SPOT 1/Viking Rocket 3.8 03:34:26 10° S 03:39:33 74° WSW 03:44:41 10° NNW
Cosmos 1092 Rocket 4.0 03:33:27 10° S 03:39:44 73° E 03:46:04 10° N
Cosmos 1980 Rocket 2.7 03:34:35 10° N 03:40:02 46° ENE 03:45:25 10° SE
FALCON 9 R/B 3.2 03:38:48 10° WSW 03:41:58 28° SSW 03:48:57 10° SE
Resurs 01 Rocket 1.6 03:47:39 10° SSE 03:52:02 79° ENE 03:56:27 10° N
USA 234 3.2 03:48:35 10° NE 03:55:06 68° SE 04:01:34 10° SSW
Terra 3.9 03:55:44 10° E 03:57:29 12° ENE 03:59:14 10° NE
Lacrosse 5 rocket 3.4 03:57:49 10° WNW 04:00:59 21° WSW 04:04:03 10° S
Cosmos 1470 3.9 03:59:11 10° NNE 04:02:15 25° ENE 04:04:12 16° ESE
IRIDIUM 103 4.5 03:58:59 10° N 04:04:07 55° E 04:09:13 10° SSE
CZ-4 R/B 3.2 04:01:14 10° SSW 04:04:42 30° W 04:08:14 10° NW
Cosmos 2026 Rocket 4.3 03:58:35 10° SSW 04:04:44 69° W 04:10:50 10° N
KORONAS-FOTON 3.7 04:03:24 10° S 04:07:03 64° E 04:10:45 10° NNE
CZ-4B R/B 3.8 04:06:54 10° S 04:12:03 55° W 04:17:16 10° NNW
Cosmos 1842 3.0 04:09:09 10° S 04:12:48 86° E 04:16:28 10° N
IRIDIUM 106 4.3 04:17:11 10° N 04:22:26 85° E 04:27:28 11° S
In-Cosmos 22 4.3 04:25:10 12° S 04:30:22 59° E 04:35:50 10° NNE
Cosmos 540 Rocket 3.6 04:26:07 10° N 04:31:11 58° ENE 04:34:01 25° SE
Cosmos 2360 Rocket 4.3 04:28:39 10° NNE 04:31:14 13° NE 04:33:47 10° E
Cosmos 1707 3.2 04:34:02 10° SSW 04:37:34 55° W 04:41:07 10° N
Cosmos 968 Rocket 4.4 04:37:09 26° ESE 04:38:07 27° E 04:42:26 10° NE
Okean-O 2.7 04:36:10 20° S 04:39:08 78° WSW 04:43:33 10° NNW
Cosmos 1741 Rocket 4.3 04:38:46 24° SSE 04:41:31 44° ESE 04:46:30 10° NNE
SL-16 R/B 3.1 04:37:34 10° N 04:42:42 34° ENE 04:45:05 24° ESE
SeaSat 1 3.3 04:42:03 24° ESE 04:44:08 35° ENE 04:48:34 10° N
Cosmos 2333 Rocket 4.1 04:41:15 10° NNE 04:44:41 16° NE 04:47:07 13° E
Cosmos 2369 4.1 04:41:03 10° NNW 04:46:41 61° WSW 04:50:32 21° S
USA 245 3.6 04:47:48 36° E 04:48:08 37° ENE 04:51:45 10° N
CZ-4C R/B 4.3 04:44:27 10° N 04:48:27 50° WNW 04:52:23 10° SSW
Atlas Centaur 2 3.0 04:42:53 10° W 04:50:56 69° S 04:56:31 23° ESE
Tiangong -1.8 04:51:24 10° WNW 04:54:31 55° NNE 04:54:54 50° NE
SPOT 5 2.6 04:53:26 32° S 04:55:21 78° WSW 04:59:43 10° NNW
Cosmos 2228 Rocket 3.5 04:55:59 39° ESE 04:56:42 43° E 05:01:01 10° NNE
Cosmos 381 Rocket 4.4 04:51:51 10° NNW 04:58:13 83° ENE 05:01:22 32° SSE
Okean O Rocket 3.7 04:55:55 10° SSW 04:59:19 22° W 05:02:43 10° NW
ASTRO E2 3.7 04:56:43 10° WSW 04:58:37 27° SW 04:58:37 27° SW
IRS-1A Rocket 4.1 04:57:29 31° SSE 05:00:14 86° ENE 05:05:45 10° NNW
MetOp-B 4.2 04:57:48 27° S 05:00:49 74° WSW 05:06:11 10° NNW
Cosmos 1356 Rocket 3.7 05:01:42 46° ESE 05:01:53 47° E 05:05:55 10° NNE
SL-08 ROCKET BODY 4.4 04:58:26 22° S 05:02:39 84° E 05:08:45 10° N
Cosmos 1400 Rocket 2.8 05:03:49 37° SSW 05:05:15 73° W 05:09:07 10° N
Cosmos 1869 Rocket 3.5 05:01:45 10° N 05:06:13 84° E 05:07:23 49° SSE
ERS-1 Rocket 2.9 05:10:39 42° SSE 05:12:23 88° WSW 05:17:26 10° NNW
ATLAS CENTAUR R/B 1.8 05:11:14 16° SW 05:13:43 47° WNW 05:17:07 10° NNE
Meteor 1-12 Rocket 4.5 05:08:04 10° N 05:14:00 59° E 05:15:46 43° SE
S3M 3.9 05:10:21 10° N 05:16:43 86° E 05:19:23 38° S
Cosmos 1300 3.6 05:14:44 10° N 05:17:15 34° NE 05:17:15 34° NE
Cosmos 1441 Rocket 4.0 05:15:50 10° NNW 05:19:15 41° W 05:19:50 37° WSW
Cosmos 2266 Rocket 4.4 05:15:24 16° SSW 05:20:26 63° W 05:26:47 10° N
Cosmos 841 Rocket 3.5 05:15:42 10° NNW 05:20:57 71° ENE 05:22:02 54° SE
Meteor 1-22 Rocket 4.2 05:16:19 10° N 05:22:04 88° W 05:24:08 43° S
Cosmos 1655 Rocket 4.0 05:19:20 31° S 05:22:39 90° NE 05:29:04 10° N
Cosmos 1980 Rocket 4.3 05:19:37 10° NW 05:23:34 20° W 05:27:30 10° SW
Spot 2 Rocket 3.4 05:22:35 54° SSE 05:23:45 87° ENE 05:28:51 10° NNW
Cosmos 2322 Rocket 2.6 05:20:09 10° N 05:25:39 49° ENE 05:26:46 43° E
Aureole 3 4.1 05:27:56 40° NE 05:27:56 40° NE 05:31:11 10° NNE
Cosmos 1862 Rocket 3.4 05:32:17 81° E 05:32:17 81° E 05:36:39 10° N
Terra 2.1 05:33:36 49° SW 05:34:30 59° W 05:39:09 10° NNW
Meteor 2-10 Rocket 3.5 05:31:08 10° N 05:36:39 87° W 05:37:35 62° S
Cosmos 2278 4.0 05:31:55 10° NNW 05:37:30 58° WSW 05:38:57 45° SSW
Meteor 1-21 4.2 05:36:20 46° SSW 05:38:09 85° W 05:43:59 10° N
Landsat 5 3.5 05:38:23 10° N 05:42:09 74° NNW 05:42:09 74° NNW
Okean 3 3.7 05:44:40 62° N 05:44:40 62° N 05:48:09 10° N
Ariane Rocket 3.3 05:47:41 50° SW 05:48:30 56° W 05:53:30 10° NNW
Cosmos 2219 Rocket 3.3 05:46:08 10° N 05:51:06 30° ENE 05:51:37 30° ENE
Cosmos 1707 Rocket 4.4 05:52:13 42° WSW 05:52:49 44° W 05:57:06 10° N
SJ 16-02 1.6 05:53:27 62° NW 05:53:27 62° NW 05:57:29 10° N
Cosmos 1346 Rocket 3.9 05:58:31 10° NNW 06:01:14 41° NW 06:01:14 41° NW
COSMOS 2455 4.0 06:07:48 29° ENE 06:07:48 29° ENE 06:11:16 10° NE
ARIANE 5 R/B 4.2 06:08:40 26° NE 06:08:40 26° NE 06:11:15 10° N
RESURS DK-1 3.6 06:03:57 10° NW 06:06:46 37° WNW 06:06:46 37° WNW
CZ-4C R/B 4.1 06:13:08 13° NE 06:13:08 13° NE 06:13:50 10° NE
SL-08 R/B 4.3 06:10:00 76° ESE 06:10:14 77° E 06:16:20 10° N
Cosmos 2360 Rocket 2.1 06:10:10 10° NNW 06:15:45 79° W 06:15:45 79° W
Cosmos 1455 4.5 06:16:38 10° N 06:17:48 19° N 06:17:48 19° N
Cosmos 1733 Rocket 4.3 06:16:20 10° NNW 06:19:50 35° WNW 06:19:50 35° WNW
SeaSat 1 4.0 06:21:45 24° WSW 06:21:45 24° WSW 06:25:31 10° NW
Okean 1-7 4.2 06:24:32 41° NW 06:24:32 41° NW 06:27:45 10° N
ATLAS 2AS CENTAUR R/B 2.4 06:17:40 10° NNW 06:24:26 81° ENE 06:24:53 77° ESE
SL-16 R/B 3.6 06:21:54 10° NW 06:26:35 27° WSW 06:26:57 27° WSW
Cosmos 2333 Rocket 2.4 06:23:43 10° NNW 06:29:07 65° W 06:29:07 65° W
GP-B 4.3 06:27:58 10° N 06:30:43 38° N 06:30:43 38° N
USA 281 3.4 06:32:33 56° E 06:33:07 58° ENE 06:39:33 10° NNW
Cosmos 1814 Rocket 4.4 06:31:14 10° NNW 06:35:43 59° NW 06:35:43 59° NW
Atlas Centaur 2 3.5 06:32:14 10° W 06:38:43 44° SW 06:38:43 44° SW
Cosmos 2227 Rocket 4.2 06:52:28 16° ENE 06:52:28 16° ENE 06:54:08 10° NE
Cosmos 2237 Rocket 4.2 06:46:50 10° NNE 06:50:22 17° ENE 06:51:07 16° ENE
Cosmos 1745 Rocket 4.0 06:53:20 78° WNW 06:53:20 78° WNW 06:59:32 10° N
Cosmos 2322 4.2 06:47:35 10° NNW 06:52:24 53° NNE 06:52:24 53° NNE
ALOS 2 4.5 07:00:33 25° NNE 07:00:33 25° NNE 07:02:48 10° N
Cosmos 2322 Rocket 4.1 07:05:25 10° WNW 07:08:34 18° W 07:08:34 18° W
Cosmos 839 Rocket 4.3 07:03:15 10° NW 07:08:45 56° WNW 07:08:45 56° WNW
Nadezhda 1 Rocket 4.1 07:03:23 10° N 07:09:03 68° NW 07:09:03 68° NW
Cosmos 2297 Rocket 3.0 07:11:25 45° NE 07:11:25 45° NE 07:15:20 10° NNE
CENTAUR R/B 3.8 07:20:44 25° ENE 07:20:44 25° ENE 07:23:48 10° NE
ATLAS 2A CENTAUR R/B 4.3 06:45:54 10° WSW 07:21:30 61° S 07:22:17 60° SSE
Meteor 2-5 Rocket 4.2 07:24:15 61° NNE 07:24:15 61° NNE 07:29:01 10° N
COSMOS 2428 3.4 07:28:58 10° NNW 07:33:09 50° NW 07:33:09 50° NW
Cosmos 2219 Rocket 3.7 07:30:00 10° NW 07:33:19 27° WNW 07:33:19 27° WNW
Cosmos 2263 Rocket 4.2 07:45:28 18° ENE 07:45:28 18° ENE 07:47:37 10° NE
COSMOS 2455 4.2 07:50:52 30° WNW 07:51:44 31° NW 07:57:01 10° N
NOSS 0 Rocket 4.3 07:48:57 10° NNW 07:54:00 60° NW 07:54:00 60° NW
CZ-4C R/B 3.7 07:58:11 23° NW 07:58:11 23° NW 08:02:08 10° N
NOSS 3-2 (A) 4.4 08:06:19 32° NE 08:06:19 32° NE 08:09:31 10° NE
Cosmos 2184 Rocket 4.2 08:07:26 70° NNE 08:07:26 70° NNE 08:13:00 10° N
SL-12 R/B(2) 4.0 08:08:53 80° SW 08:09:27 88° WNW 08:18:35 10° NNE
Cosmos 2098 Rocket 4.5 08:05:39 10° NNW 08:11:08 52° WNW 08:11:08 52° WNW
SL-4 R/B 4.4 08:17:54 10° NNW 08:19:46 21° N 08:19:46 21° N
Cosmos 2154 Rocket 4.1 08:24:17 70° N 08:24:17 70° N 08:29:47 10° N
SL-16 R/B 3.5 08:22:38 10° N 08:27:40 31° ENE 08:28:23 30° ENE
H-2A R/B 4.2 08:26:13 10° N 08:28:00 21° NNW 08:28:00 21° NNW
Cosmos 2082 4.4 08:32:57 47° NE 08:32:57 47° NE 08:37:07 10° NNE
Cosmos 2227 Rocket 3.1 08:34:15 40° NW 08:34:15 40° NW 08:38:57 10° N
Cosmos 2237 Rocket 3.2 08:29:16 10° NNW 08:32:55 39° NW 08:32:55 39° NW
IDEFIX/ARIANE 42P 4.4 08:34:55 10° NE 08:38:13 21° E 08:38:13 21° E
CZ-2D R/B 4.0 08:45:24 10° NE 08:48:55 19° E 08:48:55 19° E
Cosmos 2297 Rocket 4.4 08:53:11 14° WNW 08:54:17 14° NW 08:57:14 10° NNW
Cosmos 2219 3.8 08:57:02 48° NW 08:57:02 48° NW 09:01:49 10° N
CENTAUR R/B 3.6 09:07:50 28° WNW 09:08:51 30° NW 09:14:31 10° NNE
Cosmos 2341 Rocket 3.8 09:12:42 88° NNE 09:12:42 88° NNE 09:18:52 10° N
ADEOS II 3.8 09:10:41 10° NE 09:14:39 22° E 09:15:11 21° ESE
USA 238 DEB 4.0 09:16:15 45° ESE 09:16:15 45° ESE 09:22:14 10° NE
USA 238 4.0 09:16:17 44° ESE 09:16:17 44° ESE 09:22:17 10° NE
Cosmos 1937 Rocket 3.8 09:18:39 63° NNW 09:18:39 63° NNW 09:23:09 10° NNE
MOZ.5/SAFIR/RUBIN 5/SL-8 4.5 09:18:28 50° NE 09:18:28 50° NE 09:22:23 10° N
Cosmos 1898 Rocket 4.2 09:22:24 44° NW 09:22:24 44° NW 09:26:37 10° N
Cosmos 864 Rocket 4.3 09:22:44 81° SSE 09:23:03 87° E 09:29:25 10° N
Cosmos 1339 Rocket 4.5 09:18:21 10° NNW 09:24:38 68° W 09:24:38 68° W
Meteor 2-1 Rocket 4.2 09:19:03 10° N 09:24:57 81° E 09:25:02 81° E
Cosmos 2263 Rocket 3.0 09:27:08 39° WNW 09:27:08 39° WNW 09:32:10 10° N
Resurs 1-4 Rocket 2.6 09:23:16 10° NNE 09:28:23 50° E 09:28:26 50° ESE
Cosmos 1821 Rocket 4.0 09:44:40 60° SSE 09:45:44 73° E 09:51:50 10° N
Cosmos 1844 Rocket 3.0 09:45:59 50° SE 09:46:33 52° ESE 09:51:58 10° NNE
Cosmos 1437 Rocket 3.9 09:47:29 40° NE 09:47:29 40° NE 09:50:16 10° NNE
Cosmos 2218 Rocket 4.0 09:48:21 57° WSW 09:48:49 59° W 09:54:56 10° N
ALOS 3.9 09:46:54 10° NE 09:50:41 24° E 09:51:43 23° ESE
Cosmos 2366 rocket 4.3 09:55:01 48° W 09:55:33 49° W 10:01:36 10° N
Cosmos 1544 Rocket 4.1 09:51:39 10° NNW 09:55:05 50° NW 09:55:05 50° NW
Cosmos 2228 3.3 09:54:51 10° N 09:58:31 64° N 09:58:31 64° N
Cosmos 1680 Rocket 3.4 09:54:33 10° NNW 09:59:47 86° ENE 10:00:26 69° SSE
NOSS 3-2 (C) 3.9 10:00:08 36° WNW 10:00:53 38° NW 10:06:16 10° NNE
Cosmos 2112 Rocket 4.0 09:56:53 10° NNW 10:02:05 75° ENE 10:03:19 52° SE
Cosmos 1818 3.7 09:57:01 10° NNW 10:02:30 72° ENE 10:05:16 30° SE
MSX 3.9 10:02:05 10° N 10:07:42 60° WNW 10:08:36 53° WSW
COSMOS 2441 4.2 10:03:14 10° NNE 10:08:04 87° WNW 10:08:25 77° SSW
USA 267 3.2 10:02:47 10° NE 10:09:19 79° SE 10:11:21 48° SSW
SL-16 R/B 3.4 10:06:44 10° NW 10:10:12 27° WNW 10:10:12 27° WNW
H-2A R/B 4.5 10:08:56 10° N 10:11:52 34° NW 10:11:52 34° NW
IDEFIX/ARIANE 42P 3.3 10:13:41 10° N 10:18:27 37° WNW 10:18:57 36° W
SL-16 R/B 3.2 10:13:36 10° SE 10:19:38 53° ENE 10:25:40 10° N
CZ-2C R/B 2.5 10:18:44 57° SSW 10:19:40 70° WSW 10:25:00 10° NNW
SEDSat Delta rocket 3.6 10:20:59 39° ESE 10:20:59 39° ESE 10:23:51 10° E
Cosmos 1934 Rocket 4.4 10:20:51 27° SSE 10:24:20 62° E 10:30:36 10° NNE
CZ-2C R/B 3.2 10:19:46 10° N 10:24:58 57° WNW 10:25:53 49° WSW
Cosmos 1943 3.0 10:20:51 10° NNW 10:26:29 83° WSW 10:29:23 30° SSE
CZ-2D R/B 2.6 10:24:15 10° N 10:29:13 43° WNW 10:30:12 39° W
Cosmos 1606 Rocket 3.7 10:27:12 10° N 10:31:37 71° E 10:33:15 37° SSE
Cosmos 921 Rocket 3.6 10:27:47 10° N 10:31:54 52° ENE 10:34:31 20° SE
Mugunghwa Rocket 4.4 10:30:40 40° SSW 10:31:55 44° S 10:37:55 10° ESE
FENGYUN 3A 3.7 10:27:33 10° N 10:32:53 65° WNW 10:34:26 44° SW
ASTEX 1 3.3 10:31:48 36° SSE 10:33:48 82° E 10:38:40 10° N
Envisat 4.2 10:30:31 10° NNE 10:35:10 36° E 10:38:38 16° SSE
Iridium 2 4.4 10:40:08 31° NNE 10:40:08 31° NNE 10:41:37 10° N
Cosmos 1125 Rocket 3.6 10:38:11 37° S 10:40:19 76° ESE 10:45:36 10° NNE
Cosmos 1867 4.5 10:41:52 28° W 10:43:40 36° NW 10:48:42 10° N
CZ-2C R/B 4.1 10:41:15 10° NE 10:45:04 26° E 10:48:54 10° SSE
Cosmos 1726 Rocket 3.6 10:42:38 10° N 10:47:04 78° E 10:49:33 25° SSE
Cosmos 1812 3.7 10:43:46 10° N 10:47:09 40° E 10:49:38 16° SE
Cosmos 2058 3.1 10:48:11 32° SSE 10:49:52 65° E 10:53:54 10° NNE
Cosmos 494 Rocket 3.9 10:46:55 10° NNW 10:52:10 85° WSW 10:57:05 12° SSE
Cosmos 1727 Rocket 4.4 10:46:28 10° NNW 10:52:24 44° W 10:55:03 30° SW
ADEOS II 2.8 10:49:31 10° N 10:54:18 37° WNW 10:56:03 29° WSW
SAR-Lupe-4 3.5 10:52:32 10° N 10:56:04 69° WNW 10:56:48 50° SW
YAOGAN 6 4.5 10:55:40 10° NE 10:58:12 22° E 11:00:36 11° SSE
Cosmos 1844 4.4 10:57:17 28° WSW 10:59:41 40° WNW 11:05:07 10° N
IRAS Rocket 4.2 10:54:31 10° N 11:00:00 76° WNW 11:03:12 26° SSW
USA 81 4.0 11:00:05 10° N 11:05:23 87° E 11:10:23 11° S
Resurs 1-4 Rocket 3.8 11:04:22 10° NNW 11:07:43 17° WNW 11:09:29 15° W
ATLAS 5 CENTAUR R/B 1.5 11:06:36 29° S 11:07:51 45° ESE 11:11:03 10° NE
UNK 3.7 11:03:41 10° SSE 11:08:13 89° W 11:12:50 10° NNW
GOES 2 Rocket 4.3 11:08:49 21° S 11:08:49 21° S 11:11:47 10° SE
Iridium 4 Rocket 3.4 11:04:30 10° N 11:09:04 76° E 11:14:02 10° S
Meteor 1-28 Rocket 3.7 11:10:01 33° WSW 11:10:16 33° W 11:13:31 10° NNW
Timation 2 Rocket 4.2 11:08:51 24° SW 11:13:04 65° WNW 11:19:29 10° NNE
Cosmos 1544 2.0 11:13:19 53° SSW 11:13:50 83° W 11:16:27 10° N
NOSS 2-2 (E) 3.7 11:12:35 23° S 11:14:32 46° ESE 11:17:37 10° NE
Delta 2 Rocket 3.2 11:18:27 13° WNW 11:22:04 86° SSW 11:26:30 10° ESE
Cosmos 2058 Rocket 3.0 11:21:07 10° N 11:25:32 74° W 11:29:53 10° S
Thor Agena Rocket 4.2 11:20:29 10° NNE 11:25:40 54° ESE 11:30:46 10° S
Cosmos 1758 Rocket 4.2 11:22:07 10° S 11:26:26 54° E 11:30:45 10° NNE
ALOS 3.5 11:23:57 10° NNW 11:27:45 26° WNW 11:30:00 18° WSW
NOAA 11 4.2 11:23:06 10° N 11:28:34 74° WNW 11:33:30 13° SSW
Cosmos 1844 Rocket 4.4 11:27:38 12° W 11:30:43 19° WNW 11:34:34 10° NNW
NOSS 2-3 (D) 3.3 11:29:15 18° SSW 11:31:54 71° ESE 11:35:36 10° NE
Cosmos 2298 Rocket 4.1 11:29:42 17° SSW 11:33:47 62° WNW 11:39:04 10° N
METEOR-M 4.3 11:30:03 10° N 11:35:16 57° WNW 11:39:52 13° SSW
Cosmos 1500 4.5 11:38:28 10° SSE 11:41:38 35° E 11:44:48 10° NNE
USA 276 4.4 11:41:39 10° SSE 11:43:25 15° SE 11:45:09 10° E
Cosmos 1607 3.9 11:39:24 10° NW 11:45:41 64° WSW 11:51:48 10° SSE
Cosmos 1605 Rocket 4.4 11:41:46 11° SSW 11:47:24 46° W 11:53:17 10° N
Cosmos 1626 Rocket 3.9 11:44:00 11° SSW 11:48:04 50° W 11:52:23 10° N
NOSS 2-2 (C) 3.9 11:46:58 15° WSW 11:49:21 31° WNW 11:52:11 10° N
CZ-4 R/B 4.5 11:45:12 10° N 11:49:49 41° WNW 11:54:24 10° SW
Cosmos 2278 Rocket 3.1 11:47:28 10° S 11:52:53 48° ESE 11:58:19 10° NNE
Cosmos 1862 3.4 11:49:53 10° S 11:53:40 75° E 11:57:27 10° N
